f6hdw-13 Alliat FR current weather conditions

sailwx.info

Wind from 360 at 2 knots gusting 2

Air temperature 17.2° C
Dewpoint 2.8° C

Last reported at 2020-Feb-22 14:10 UTC.
Time now 2020-Feb-22 15:36 UTC

Location: N 42°49' E 001°35'.
View on Google Maps.

See reports from other nearby stations

  
Tides and Currents Weather Stations Pressure Air Temp Water Temp Dewpoint Dewpoint Depression Visibility Wind Speed Wind Dir Waves Ship Positions
date/time (UTC)wind fromknots sea level pressurealtimeterstation pressurevisibilityair tempwater tempwave heightnotes
2020-Feb-22 14:10 360 2 gusting 2 17.2
2020-Feb-22 14:00 022 17.8
2020-Feb-22 13:50 045 18.3
2020-Feb-22 12:50 180 0 gusting 1 21.1
2020-Feb-22 12:10 315 20.0
2020-Feb-22 11:50 360 20.6
2020-Feb-22 09:40 180 8.9
2020-Feb-22 09:20 157 5.0
2020-Feb-22 06:50 337 -1.7
2020-Feb-22 06:00 360 -1.1
2020-Feb-22 04:30 337 -1.7
2020-Feb-22 02:20 337 -0.6
2020-Feb-22 02:10 337 -0.6
2020-Feb-22 01:50 337 -0.0
2020-Feb-22 01:30 337 -0.0
2020-Feb-22 00:00 337 0.6
2020-Feb-21 23:10 337 1.1
2020-Feb-21 22:30 337 1.7
2020-Feb-21 21:50 337 1.7
2020-Feb-21 21:30 337 1.7
2020-Feb-21 21:20 337 2.2
2020-Feb-21 21:10 337 2.2
2020-Feb-21 20:50 360 2.2
2020-Feb-21 20:20 337 2.8
2020-Feb-21 20:10 337 2.8
2020-Feb-21 18:00 337 6.1
2020-Feb-21 17:30 337 7.2
2020-Feb-21 16:30 202 10.6
2020-Feb-21 16:00 225 11.1
2020-Feb-21 15:40 202 1 gusting 1 11.7
2020-Feb-21 15:30 202 2 gusting 2 11.7
2020-Feb-21 15:20 225 11.7
2020-Feb-21 14:40 067 12.2
2020-Feb-21 14:30 202 12.2
2020-Feb-21 11:40 135 16.1
2020-Feb-21 10:40 157 3 gusting 3 13.3
2020-Feb-21 10:30 090 1 gusting 1 13.3
2020-Feb-21 07:10 337 -1.7
2020-Feb-21 07:00 337 -1.7
2020-Feb-21 06:40 315 -1.7
2020-Feb-21 06:30 315 -1.7
2020-Feb-21 04:00 337 -0.6
2020-Feb-21 03:40 337 -0.6
2020-Feb-21 03:10 337 -0.6
2020-Feb-21 02:30 337 -0.0
2020-Feb-21 01:30 337 0.6
2020-Feb-21 01:20 337 0.6
2020-Feb-21 01:00 337 0.6
2020-Feb-21 00:50 337 0.6
2020-Feb-21 00:20 337 1.1
2020-Feb-20 22:50 360 1.7
2020-Feb-20 22:20 315 1.7
2020-Feb-20 22:00 315 2.2
2020-Feb-20 21:30 337 2.2
2020-Feb-20 21:20 337 2.2
2020-Feb-20 20:50 337 2.8
2020-Feb-20 18:30 315 5.6
2020-Feb-20 15:20 202 2 gusting 2 15.6